Location: *
(40.7873°S, 98.7174°E)
Time: 09:11:35
(UTC+00:00)

Cosmos 1812 - Pass Details

Date: 24 May 2022
Orbit: 511 x 514 km, 82.5° (Epoch: 04 July)

Event Time Altitude Azimuth Distance (km) Brightness Sun altitude
Rises 11:32:56 0° 180° (S) 2,667 6.2 -15.4°
Reaches altitude 10° 11:35:12 10° 171° (S) 1,770 5.2 -15.8°
Maximum altitude 11:38:50 38° 102° (ESE) 814 3.1 -16.5°
Drops below altitude 10° 11:42:25 10° 33° (NNE) 1,743 5.2 -17.2°
Sets 11:44:38 0° 24° (NNE) 2,621 6.2 -17.6°
